Jackson, MS

2:07 AM CDT on April 24, 2017 (GMT -0500)
Jackson-Evers International

Weather History for KJAN - November, 2013

Change the Weather History Date:

Thursday, November 14, 2013

  Actual Average Record
Temperature  
Mean Temperature 44 °F 56 °F  
Max Temperature 63 °F 68 °F 88 °F (1921)
Min Temperature 24 °F 44 °F 21 °F (1907)
Degree Days  
Heating Degree Days 21 10  
Month to date heating degree days 147 110  
Since 1 July heating degree days 229 217  
Cooling Degree Days 0 1  
Month to date cooling degree days 4 15  
Year to date cooling degree days 2336 2246  
Moisture  
Dew Point 31 °F    
Average Humidity 60    
Maximum Humidity 88    
Minimum Humidity 32    
Precipitation  
Precipitation 0.00 in 0.16 in 2.27 in (1993)
Month to date precipitation 0.03 2.00  
Year to date precipitation 53.16 46.23  
Sea Level Pressure  
Sea Level Pressure 30.30 in    
Wind  
Wind Speed 5 mph (SE)    
Max Wind Speed 15 mph    
Max Gust Speed 21 mph    
Visibility 10 miles    
Events      
T = Trace of Precipitation, MM = Missing Value Source: NWS Daily Summary

Daily Weather History Graph

Daily Weather History Graph

Search for Another Location

Airport or City:

Trip Planner

Search our weather history database for the weather conditions in past years. The results will help you decide how hot, cold, wet, or windy it might be!

Date:

Astronomy

Nov. 14, 2013 Rise Set
Actual Time 6:28 AM CST 5:00 PM CST
Civil Twilight 6:02 AM CST 5:26 PM CST
Nautical Twilight 5:33 AM CST 5:55 PM CST
Astronomical Twilight 5:04 AM CST 6:24 PM CST
Moon 3:13 PM CST (11/14) 3:33 AM CST (11/14)
Length of Visible Light 11h 23m
Length of Day
10h 31m
Waxing Gibbous, 92% of the Moon is Illuminated
Nov 14
Waxing Gibbous
Nov 17
Full
Nov 25
Last Quarter
Dec 2
New
Dec 9
First Quarter

Hourly Weather History & Observations

Time (CST) Temp. Windchill Dew Point Humidity Pressure Visibility Wind Dir Wind Speed Gust Speed Precip Events Conditions
12:54 AM 28.0 °F - 24.1 °F 85% 30.42 in 10.0 mi Calm Calm - N/A   Clear
1:54 AM 27.0 °F - 23.0 °F 85% 30.42 in 10.0 mi Calm Calm - N/A   Clear
2:54 AM 26.1 °F - 23.0 °F 88% 30.41 in 10.0 mi Calm Calm - N/A   Clear
3:54 AM 27.0 °F - 23.0 °F 85% 30.40 in 10.0 mi Calm Calm - N/A   Clear
4:54 AM 25.0 °F - 21.0 °F 85% 30.40 in 10.0 mi Calm Calm - N/A   Clear
5:54 AM 26.1 °F - 21.9 °F 84% 30.40 in 10.0 mi Calm Calm - N/A   Clear
6:54 AM 27.0 °F - 23.0 °F 85% 30.42 in 10.0 mi Calm Calm - N/A   Clear
7:54 AM 36.0 °F - 28.9 °F 76% 30.41 in 10.0 mi Calm Calm - N/A   Clear
8:54 AM 46.0 °F 40.6 °F 24.1 °F 42% 30.41 in 10.0 mi SE 11.5 mph - N/A   Clear
9:54 AM 52.0 °F - 23.0 °F 32% 30.40 in 10.0 mi SE 15.0 mph 20.7 mph N/A   Partly Cloudy
10:54 AM 54.0 °F - 27.0 °F 35% 30.38 in 10.0 mi SSE 8.1 mph - N/A   Partly Cloudy
11:54 AM 57.0 °F - 32.0 °F 39% 30.33 in 10.0 mi Variable 3.5 mph - N/A   Partly Cloudy
12:54 PM 59.0 °F - 35.1 °F 41% 30.28 in 10.0 mi SSE 6.9 mph - N/A   Partly Cloudy
1:54 PM 62.1 °F - 36.0 °F 38% 30.25 in 10.0 mi South 9.2 mph - N/A   Partly Cloudy
2:54 PM 62.1 °F - 36.0 °F 38% 30.23 in 10.0 mi SE 6.9 mph - N/A   Partly Cloudy
3:54 PM 59.0 °F - 39.0 °F 48% 30.22 in 10.0 mi ESE 6.9 mph - N/A   Partly Cloudy
4:54 PM 54.0 °F - 39.9 °F 59% 30.21 in 10.0 mi ESE 5.8 mph - N/A   Scattered Clouds
5:54 PM 51.1 °F - 39.9 °F 66% 30.22 in 10.0 mi SE 6.9 mph - N/A   Mostly Cloudy
6:54 PM 52.0 °F - 39.9 °F 63% 30.20 in 10.0 mi SE 5.8 mph - N/A   Mostly Cloudy
7:54 PM 52.0 °F - 37.9 °F 59% 30.20 in 10.0 mi SE 8.1 mph - N/A   Mostly Cloudy
8:54 PM 51.1 °F - 37.9 °F 61% 30.20 in 10.0 mi SE 6.9 mph - N/A   Partly Cloudy
9:54 PM 48.9 °F - 37.9 °F 66% 30.19 in 10.0 mi SE 4.6 mph - N/A   Partly Cloudy
10:54 PM 50.0 °F - 37.9 °F 63% 30.19 in 10.0 mi SSE 4.6 mph - N/A   Partly Cloudy
11:54 PM 51.1 °F - 37.9 °F 61% 30.17 in 10.0 mi SSE 3.5 mph - N/A   Overcast